Main page
Satellite images Climate Cyclones Lightning AirportsFAQ Languages Contact Newsletter About
Weather : Europe Africa North America South America Asia Australia-Oceania Others

5365, Udon Thani, Udon Thani International Airport

48354

latitude: , longitude: Thailand, elevation: 17-23N m


METAR: VTUD 211500Z 07014KT 030V100 9999 FEW024CB BKN042 28/23 Q1008